Location: Unspecified
(0.0000°N, 0.0000°E)
Time: 07:59:58
(UTC+00:00)

deb Midas III - Pass Details

Date: 17 March 2026
Orbit: 3314 x 3545 km, 91.1° (Epoch: 18 April)

Event Time Altitude Azimuth Distance (km) Brightness Sun altitude
Rises 00:42:16 0° 162° (SSE) 7,609 ? -81.4°
Reaches altitude 10° 00:46:50 10° 157° (SSE) 6,570 ? -80.3°
Enters shadow 00:50:43 20° 151° (SSE) 5,727 ? -79.3°
Exits shadow 01:18:45 17° 13° (NNE) 5,812 ? -72.4°
Drops below altitude 10° 01:21:24 10° 10° (N) 6,403 ? -71.7°
Sets 01:25:39 0° 6° (N) 7,407 ? -70.7°
